Regional Weather Roundup
Issued by NWS Boston, MA

Home | Current Version | Previous Version | Text Only | Print | Product List | Glossary On
Versions: 1 2 3 4 5 6 7 8 9 10 11 12 13 14 15 16 17 18 19 20 21 22 23 24 25 26 27 28 29 30 31 32 33 34 35 36 37 38 39 40 41 42 43 44 45 46 47 48 49 50
000
ASUS41 KBOX 291510
RWRBOX

REGIONAL WEATHER ROUNDUP
NATIONAL WEATHER SERVICE TAUNTON MA
1000 AM EST MON DEC 29 2014

NOTE:  "FAIR" INDICATES FEW OR NO CLOUDS BELOW 12,000 FEET WITH NO
SIGNIFICANT WEATHER AND/OR OBSTRUCTIONS TO VISIBILITY.  THE FOLLOWING
OBSERVATION LOCATIONS DO NOT REPORT PRESENT WEATHER...PROVINCETOWN...
SMITHFIELD...BLOCK ISLAND...KEENE...AND OXFORD.

MAZALL-291600-
EASTERN MASSACHUSETTS

CITY           SKY/WX    TMP DP  RH WIND       PRES   REMARKS
BOSTON         MOSUNNY   39  24  55 W12       30.14R WCI  32
BEVERLY        SUNNY     38  23  55 SW9       30.11R WCI  31
LAWRENCE       SUNNY     37  24  59 SW9       30.13R WCI  30
BEDFORD        SUNNY     37  24  59 W8        30.12R WCI  31
BLUE HILL        N/A     35  23  61 W12       30.10R WCI  27
NORWOOD        MOSUNNY   38  24  57 W12       30.14R WCI  30
MARSHFIELD     MOSUNNY   39  27  60 CALM      30.16R
PLYMOUTH       PTSUNNY   37  25  61 W9        30.14R WCI  30
TAUNTON        MOSUNNY   38  25  59 W6        30.14R
NEW BEDFORD    PTSUNNY   37  26  64 W8        30.15R WCI  31
$$

MAZALL-291600-
CAPE COD AND THE ISLANDS

CITY           SKY/WX    TMP DP  RH WIND       PRES   REMARKS
FALMOUTH       PTSUNNY   37  27  65 NW7       30.15R
HYANNIS        MOSUNNY   37  23  56 W7        30.14R WCI  32
CHATHAM        MOSUNNY   39  24  55 VRB3      30.15R
PROVINCETOWN   MOSUNNY   41  25  52 W12       30.13S
NANTUCKET      CLOUDY    41  24  51 NW8       30.15R
MARTHAS VNYRD  CLOUDY    39  25  57 NW9       30.16R
$$

MAZALL-291600-
CENTRAL AND WESTERN MASSACHUSETTS

CITY           SKY/WX    TMP DP  RH WIND       PRES   REMARKS
WORCESTER      SUNNY     33  21  61 W10       30.10R WCI  25
FITCHBURG      SUNNY     38  22  52 W6        30.13R
ORANGE         SUNNY     36  20  52 NW8       30.12R WCI  30
SPRINGFIELD    SUNNY     38  22  52 W7        30.15R
WESTFIELD      MOSUNNY   39  22  50 W8        30.15R
NORTH ADAMS    SUNNY     35  21  56 W13G21    30.13R WCI  26
PITTSFIELD     MOSUNNY   32  23  69 W5        30.11R WCI  27
$$

RIZALL-291600-
RHODE ISLAND

CITY           SKY/WX    TMP DP  RH WIND       PRES   REMARKS
PROVIDENCE     MOSUNNY   37  24  59 W6        30.17R
NEWPORT        PTSUNNY   37  25  61 W6        30.16R
BLOCK ISLAND   CLOUDY    39  21  48 NW9       30.17R
SMITHFIELD     MOSUNNY   37  19  48 W9        30.14R WCI  31
WESTERLY       PTSUNNY   36  24  62 W3        30.19R
$$

CTZALL-291600-
CONNECTICUT

CITY           SKY/WX    TMP DP  RH WIND       PRES   REMARKS
BRADLEY INTL   MOSUNNY   39  23  52 VRB7      30.16R
HARTFORD       MOSUNNY   38  23  55 W10       30.19R WCI  31
BRIDGEPORT     PTSUNNY   40  26  57 NW7       30.20R
DANBURY        SUNNY     37  21  52 W6        30.19R
GROTON         PTSUNNY   36  25  64 W6        30.19R WCI  31
NEW HAVEN      PTSUNNY   40  26  57 VRB3      30.20R
CHESTER        FAIR      36  25  64 W3        30.18R
MERIDEN        MOSUNNY   38  26  62 NE3       30.20R
WILLIMANTIC    MOSUNNY   36  25  64 SW3       30.17R
OXFORD         SUNNY     34  21  60 CALM      30.19R
$$

MEZ002-015-021-024-NHZ003-005-008-011-012-014-VTZ005-008-291600-
NORTHERN NEW ENGLAND

CITY           SKY/WX    TMP DP  RH WIND       PRES   REMARKS
PORTLAND ME    MOSUNNY   38  21  50 W8        30.06S
BANGOR ME      PTSUNNY   32  16  51 W5        30.03S WCI  27
CONCORD NH     SUNNY     37  18  46 W12G20    30.09R WCI  29
MANCHESTER NH  MOSUNNY   37  19  48 W6        30.10R
NASHUA NH      SUNNY     38  22  52 W7        30.13R
PORTSMOUTH NH  MOSUNNY   38  21  50 W10       30.09R WCI  31
JAFFREY NH     MOSUNNY   33  18  53 W12       30.09R WCI  24
KEENE NH       SUNNY     36  18  48 W9G20     30.12R WCI  29
BURLINGTON VT  PTSUNNY   25  11  55 N10       30.19R WCI  15
MT. WASHINGTON BLWGSNOW   3   3 100 NW68G75     N/A  VSB 0   WCI -30
$$

NYZ052-076-291600-
EASTERN NEW YORK

CITY           SKY/WX    TMP DP  RH WIND       PRES   REMARKS
ALBANY         MOSUNNY   36  23  59 NW9       30.18R WCI  29
NEW YORK CITY  PTSUNNY   38  24  57 NW13      30.20F WCI  30
$$

ANZALL-291600-
MARINE OBSERVATIONS

STATION/POSITION TIME  TEMP    WIND        PRES    VSBY  WAVE
                       AIR SEA DIR/SP/G                  HT/PER
                 (UTC) (F)     (DEG/KT/KT) (MB)    (MI)  (FT/S)
BOSTON BUOY      1450   37 44  250/ 14/ 16 1020.3R         1/ 3
BUZZARDS BAY     1400          310/ 15/ 15 1021.0F
NANTUCKET SOUND  1450   39 44  300/ 12/ 16 1020.7R         2/ 3
MASS BAY-STELLWA 1404   38 43  250/ 12/ 14   N/A    1 3/4  2/ 3
ISLE OF SHOALS   1500   37     260/ 14/ 15 1018.6R
S OF BLOCK IS    1408      51                N/A           4/ 8
$$

......................KEY.........................
  SKY/WX - SKY CONDITION/PRESENT WEATHER
  TMP    - TEMPERATURE IN FAHRENHEIT
  DWPT   - DEWPOINT IN FAHRENHEIT
  RH     - RELATIVE HUMIDITY IN PERCENT
  WIND   - DIRECTION AND SPEED IN MPH
  PRES   - MEAN SEA LEVEL PRESSURE IN INCHES OF HG
  WCI    - WIND CHILL INDEX
  VSB    - VISIBILITY IN MILES
  HX     - HEAT INDEX
  TC     - TEMPERATURE IN CELSIUS
  VRB    - VARIABLE WIND DIRECTION
  N/A    - NOT AVAILABLE


USA.gov is the U.S. government's official web portal to all federal, state and local government web resources and services.